Flag for French Polynesia Weather past 2 weeks in Papeete, Tahiti, French Polynesia

Now
81 °F

Passing clouds.


Feels Like: 85 °F
Forecast: 79 / 86 °F
Wind: 8 mph from Northeast

Location: Tahiti-Faaa

Current Time: Dec 26, 2014 at 11:02:25 PM

Latest Report: Dec 26, 2014 at 10:30 PM


Visibility: N/A

Pressure: 29.83 "Hg

Humidity: 79%

Dew point: 73 °F

Location of PapeeteLocation

Historic Weather in Papeete — Graph

°F

Papeete temperature yesterday

Maximum temperature yesterday: 88 °F (at 2:30 PM)
Minimum temperature yesterday: 79 °F (at 12:00 AM)
Average temperature yesterday: 83 °F

Past Weeks' High & Low Weather Summary

 TemperatureHumidityPressure
High88 °F (Dec 13, 11:00 AM)94% (Dec 20, 3:30 AM)29.92 "Hg (Dec 20, 3:30 AM)
Low75 °F (Dec 20, 3:00 AM)55% (Dec 15, 1:30 PM)29.53 "Hg (Dec 22, 3:30 PM)
Average81 °F77%29.79 "Hg
* Reported Dec 11 10:00 PM — Dec 26 10:00 PM, Papeete, Weather by CustomWeather, © 2014

Note: Actual official high and low records may vary slightly from our data, if they occured in-between our weather recording intervals... More about our weather records

Advertising

Papeete weather history for previous 24 hours

 ConditionsComfort  
Time TempWeatherWind HumidityBarometerVisibility
10:00 PM
Dec 26
81 °FPassing clouds.8 mph74%29.83 "HgN/A
9:30 PM81 °FPassing clouds.8 mph74%29.83 "HgN/A
9:00 PM81 °FPassing clouds.7 mph74%29.83 "HgN/A
8:34 PM79 °FPassing clouds.8 mph79%29.83 "HgN/A
8:00 PM77 °FPassing clouds.17 mph83%29.83 "HgN/A
7:30 PM79 °FPassing clouds.20 mph79%29.83 "HgN/A
7:00 PM82 °FPassing clouds.7 mph70%29.80 "HgN/A
6:30 PM84 °FPartly sunny.5 mph62%29.80 "HgN/A
5:30 PM84 °FPartly sunny.9 mph62%29.77 "HgN/A
5:00 PM84 °FPartly sunny.10 mph66%29.77 "HgN/A
4:30 PM84 °FPartly sunny.12 mph74%29.77 "HgN/A
4:00 PM84 °FPartly sunny.14 mph66%29.77 "HgN/A
3:30 PM84 °FPartly sunny.15 mph70%29.74 "HgN/A
3:00 PM86 °FPartly sunny.14 mph66%29.77 "HgN/A
2:30 PM86 °FPartly sunny.14 mph66%29.77 "HgN/A
2:00 PM86 °FPartly sunny.13 mph66%29.77 "HgN/A
1:30 PM86 °FPartly sunny.14 mph70%29.77 "HgN/A
1:00 PM88 °FPartly sunny.17 mph66%29.80 "HgN/A
12:30 PM88 °FPartly sunny.15 mph66%29.80 "HgN/A
12:00 PM86 °FPartly sunny.16 mph75%29.80 "HgN/A
11:30 AM84 °FPartly sunny.20 mph74%29.80 "HgN/A
11:00 AM86 °FPartly sunny.15 mph66%29.83 "HgN/A
10:30 AM86 °FPartly sunny.15 mph70%29.83 "HgN/A
10:00 AM86 °FPartly sunny.18 mph70%29.83 "HgN/A
9:30 AM86 °FPartly sunny.21 mph66%29.83 "HgN/A
9:00 AM86 °FPartly sunny.17 mph70%29.83 "HgN/A
8:30 AM84 °FPartly sunny.18 mph70%29.83 "HgN/A
8:00 AM84 °FPartly sunny.16 mph66%29.83 "HgN/A
7:30 AM84 °FPartly sunny.15 mph70%29.83 "HgN/A
7:00 AM82 °FPartly sunny.13 mph74%29.86 "HgN/A
6:30 AM81 °FPartly sunny.13 mph79%29.86 "HgN/A
6:00 AM81 °FPartly sunny.8 mph74%29.83 "HgN/A
5:30 AM81 °FWarm.9 mph74%29.83 "HgN/A
5:00 AM81 °FWarm.10 mph74%29.80 "HgN/A
4:30 AM79 °FWarm.12 mph84%29.80 "HgN/A
4:00 AM79 °FLight rain. Overcast.18 mph84%29.77 "HgN/A
3:30 AM81 °FWarm.9 mph79%29.80 "HgN/A
3:00 AM81 °FPartly cloudy.10 mph70%29.80 "HgN/A
2:30 AM81 °FPartly cloudy.15 mph74%29.77 "HgN/A
2:00 AM81 °FScattered showers. Partly cloudy.12 mph74%29.77 "HgN/A
1:30 AM79 °FScattered showers. Partly cloudy.10 mph84%29.77 "HgN/A
1:00 AM79 °FSprinkles. Partly cloudy.17 mph79%29.80 "HgN/A
12:30 AM82 °FPassing clouds.8 mph70%29.80 "HgN/A
12:00 AM82 °FPartly cloudy.10 mph74%29.80 "HgN/A
11:30 PM
Dec 25
82 °FPartly cloudy.10 mph74%29.83 "HgN/A
11:00 PM82 °FPartly cloudy.10 mph70%29.83 "HgN/A
Weather by CustomWeather, © 2014

See weather overviewHow to use our weather pages